FLOCK 4E'-3

Last updated on Sat Nov 28 2020 00:02:02 GMT+0000 (Coordinated Universal Time)

1 46819U 20077G 20332.55494475 .00003649 00000-0 18742-3 0 9994 2 46819 97.4964 32.6861 0015285 198.1236 267.8047 15.17038699 4496
UTC large
Height (km)
Speed (km/s)
/
Latitude / Longitude
Inclination (degrees)
Orbital Period (minutes)
Azimuth
Elevation
Range (km)
Doppler Factor

Next 0 passes for location: London (51.5072 / 0.1276)

Sorry there are no passes over London.